Weather Roundup
Issued by NWS

Home | Current Version | Previous Version | Text Only | Print | Product List | Glossary On
Versions: 1 2 3 4 5 6 7 8 9 10 11 12 13 14 15 16 17 18 19 20 21 22 23 24 25 26 27 28 29 30 31 32 33 34 35 36 37 38 39 40 41 42 43 44 45 46 47 48 49 50
000
NZUS93 KARX 240610
HRRWXR

CURRENT HOURLY OBSERVATIONS ACROSS
MUCH OF THE UPPER MISSISSIPPI VALLEY
NATIONAL WEATHER SERVICE LA CROSSE WI
100 AM CDT SUN JUL 24 2016


...SOUTHEAST MINNESOTA...


CITY           SKY/WX    TMP DP  RH WIND       PRES   REMARKS
ROCHESTER      CLOUDY    73  71  93 S10       29.83F
ROCHESTER/MAYO CLOUDY    73  73 100 SE10      29.83S
WINONA         CLOUDY    73  70  88 CALM      29.83S
AUSTIN         CLOUDY    73  72  94 S5        29.83S
ALBERT LEA     CLOUDY    75  73  94 S6        29.81F FOG
DODGE CENTER   CLOUDY    73  72  94 S9        29.82F FOG
PRESTON        MOCLDY    70  68  94 S9        29.85F
OWATONNA       CLOUDY    75  72  88 S10       29.80F
FARIBAULT      CLOUDY    75  73  94 SE7       29.80S
$$

...ELSEWHERE IN MINNESOTA...


CITY           SKY/WX    TMP DP  RH WIND       PRES   REMARKS
MINNEAPOLIS    CLOUDY    74  70  87 SE6       29.78R
INTNL FALLS    CLOUDY    70  64  81 VRB7      29.71S
DULUTH         CLOUDY    63  60  90 SE9       29.80S
RED WING       CLOUDY    75  70  83 SE7       29.79F
REDWOOD FALLS  MOCLDY    79  76  90 S8        29.76R
MANKATO        PTCLDY    75  70  83 S8        29.78S
WORTHINGTON    CLEAR     80  76  87 SW9       29.82R
FAIRMONT       PTCLDY    75  72  88 S6        29.78S
$$

...SOUTHWEST WISCONSIN...


CITY           SKY/WX    TMP DP  RH WIND       PRES   REMARKS
LA CROSSE      MOCLDY    74  69  85 SE9       29.82F
PRAIRIE DU CHI MOCLDY    72  69  92 E6        29.85S
BOSCOBEL       CLOUDY    72  70  93 W3        29.86S
LONE ROCK      CLOUDY    72  70  93 E5        29.87S
PLATTEVILLE    CLOUDY    72  72  99 S9        29.89S
FORT MC COY    MOCLDY    71  69  91 SW3       29.85F
CAMP DOUGLAS   CLOUDY    72  70  93 S8        29.85R
MAUSTON-NEW LI CLOUDY    72  70  95 S7        29.85S
VIROQUA        FAIR      70  70 100 S8        29.87F
WIS DELLS      CLOUDY    71  68  92 SW3       29.87S
$$

...ELSEWHERE IN WISCONSIN...


CITY           SKY/WX    TMP DP  RH WIND       PRES   REMARKS
MILWAUKEE      TSTM      74  68  81 NW6       29.94R
MADISON        CLOUDY    72  70  93 S12       29.88F
GREEN BAY      LGT RAIN  74  73  97 S12       29.87S
EAU CLAIRE     CLOUDY    70  69  97 SE6       29.82F
BLACK RVR FLS  MOCLDY    68  68 100 CALM      29.83F
MEDFORD        CLOUDY    67  67 100 SE5       29.87S
WAUSAU         CLOUDY    70  68  93 S12       29.86S
WIS RAPIDS     CLOUDY    72  67  84 N6        29.88R
MARSHFIELD     CLOUDY    71  67  87 S7        29.85F
RICE LAKE      CLOUDY    69  67  93 CALM      29.83F
$$

...NORTHEAST IOWA...


CITY           SKY/WX    TMP DP  RH WIND       PRES   REMARKS
WATERLOO       CLEAR     77  74  90 S7        29.82S
DUBUQUE        CLEAR     72  70  93 S13       29.89S
DECORAH        PTCLDY    70  70 100 VRB6      29.84F
MASON CITY     CLOUDY    74  74 100 SE5       29.83S FOG
CHARLES CITY   PTCLDY    75  75 100 S6        29.83F
OELWEIN        CLOUDY    75  75 100 S10       29.86S
$$

...ELSEWHERE IN IOWA...


CITY           SKY/WX    TMP DP  RH WIND       PRES   REMARKS
DES MOINES     CLOUDY    83  77  82 S8        29.83S HX  92
IOWA CITY      CLEAR     81  79  94 S7        29.88F HX  90
FORT DODGE     CLEAR     81  75  83 S12       29.83S
MARSHALLTOWN   CLOUDY    80  77  90 S9        29.83S
CEDAR RAPIDS   CLEAR     79  79 100 S9        29.86F
$$

...NORTHERN ILLINOIS...


CITY           SKY/WX    TMP DP  RH WIND       PRES   REMARKS
CHICAGO-OHARE  LGT RAIN  72  70  93 SE12      29.96F
CHICAGO-MIDWAY TSTM      73  70  90 E13       29.96F
MOLINE         CLOUDY    79  72  79 S9        29.89F
ROCKFORD       CLOUDY    72  70  93 S10       29.93F
PEORIA         CLOUDY    81  77  88 E3        29.94S
$$

NOTE: "FAIR" INDICATES FEW OR NO CLOUDS BELOW 12,000 FEET WITH NO
SIGNIFICANT WEATHER AND/OR OBSTRUCTIONS TO VISIBILITY. WIND
SPEEDS ARE IN MILES-PER-HOUR.




USA.gov is the U.S. government's official web portal to all federal, state and local government web resources and services.